Location: Borbetomagus
(49.6328°N, 8.3592°E)
Time: 23:53:27
(UTC+00:00)

Cosmos 1408 Rocket - Pass Details

Date: 19 May 2025
Orbit: 594 x 625 km, 82.6° (Epoch: 22 June)

Event Time Altitude Azimuth Distance (km) Brightness Sun altitude
Rises 22:54:58 0° 347° (NNW) 2,885 8.6 -20.1°
Reaches altitude 10° 22:57:13 10° 344° (NNW) 1,971 7.3 -20.1°
Maximum altitude 23:01:30 61° 265° (W) 690 3.7 -20.2°
Enters shadow 23:02:27 47° 213° (SSW) 800 3.7 -20.2°
